Theta_e
307 307 308 308 306 306 306 305 304 304 306 305 308 308 307 307 307 307 308 308 308 308 308 308 309 309 309 307 306 306 304 304 303 303 303 302 303 303 305 304 304 301 298 297
307 308 307 306 305 306 306 307 307 306 306 305 306 308 308 308 308 308 308 308 308 307 306 305 307 307 308 309 308 305 305 303 302 301 302 302 301 300 301 300 300 300 298 297
308 309 306 306 307 307 305 307 308 307 305 305 305 309 307 308 306 307 307 307 306 307 307 307 305 306 306 307 307 307 306 304 302 301 300 300 300 299 297 298 298 298 298 297
307 306 307 307 308 306 309 306 306 307 307 310 307 312 309 308 308 307 308 306 306 306 304 303 302 302 304 305 305 306 305 303 301 300 299 298 299 298 297 298 297 296 297 296
308 307 307 308 308 306 308 307 307 307 307 307 307 308 312 307 308 308 306 306 305 305 303 303 302 302 303 304 305 305 304 302 301 299 298 297 298 299 298 297 295 294 295 295
306 305 306 307 306 306 306 308 305 303 305 310 308 309 316 307 307 308 308 307 305 307 302 301 302 303 304 306 305 303 303 302 300 300 298 298 297 298 296 296 295 293 293 293
307 307 307 306 308 306 307 307 312 312 310 315 306 308 313 309 306 309 308 306 305 303 301 301 300 300 302 302 301 301 300 299 298 298 298 297 296 297 296 295 295 293 292 291
311 317 306 305 308 310 306 309 314 317 317 316 305 310 314 309 308 306 304 303 302 303 300 300 300 300 300 300 299 299 298 298 298 298 297 296 296 296 296 295 295 294 293 292
310 311 305 304 305 307 307 309 308 312 309 311 313 309 310 310 308 306 306 304 304 302 301 300 299 298 297 297 296 296 296 296 296 296 297 296 296 296 295 294 294 294 294 293
310 313 308 306 304 304 306 305 309 307 314 316 313 312 312 310 309 308 306 304 302 300 299 298 297 296 295 295 295 295 296 295 295 294 295 295 295 295 295 294 294 294 294 294
307 311 315 311 309 313 310 307 306 307 310 315 315 313 311 310 309 307 303 301 299 298 297 296 296 295 294 294 293 294 294 294 294 294 294 294 294 294 294 294 294 294 294 293
311 316 316 313 309 306 307 310 309 313 313 312 313 314 311 310 309 305 302 300 297 296 295 294 294 294 294 293 292 292 292 292 292 292 293 293 293 293 293 293 293 293 293 292
312 313 315 311 309 307 312 311 312 312 312 314 315 314 306 304 304 302 297 296 294 293 293 292 292 291 293 291 290 292 291 291 290 290 291 291 292 292 292 293 292 292 292 292
311 311 315 316 314 312 313 309 305 305 307 308 308 307 304 303 299 295 297 294 292 291 290 290 291 290 291 290 289 291 290 290 289 289 289 290 290 291 291 292 293 292 292 291
304 309 309 309 303 301 302 301 300 300 300 301 300 298 297 295 294 292 296 293 293 292 289 289 290 290 290 290 289 290 290 289 288 288 289 289 288 288 290 291 291 292 292 290
298 300 299 298 298 299 300 297 296 295 295 293 293 295 292 293 292 290 290 291 293 291 289 289 289 289 288 288 289 288 288 288 287 288 288 288 287 287 287 289 290 290 290 291
296 297 294 298 296 293 291 292 293 293 292 294 296 292 290 292 292 290 290 289 293 288 288 289 288 288 287 287 287 287 286 286 287 287 288 286 285 286 286 286 287 288 288 288
293 285 283 282 280 287 292 291 293 295 292 292 291 290 291 291 292 290 290 289 287 287 287 288 287 287 286 286 285 284 283 284 286 286 287 284 283 283 284 287 286 286 287 287
292 292 285 284 279 288 292 289 287 287 288 288 287 288 288 289 290 290 289 287 287 286 287 286 286 286 285 285 284 284 283 283 284 283 282 281 282 282 282 284 285 285 285 286
289 292 291 279 286 285 286 286 288 285 286 284 284 285 285 288 289 288 286 286 285 285 285 284 284 284 285 283 283 282 282 282 282 281 279 279 280 281 282 282 283 283 283 284
277 274 287 276 282 281 286 288 286 283 285 284 286 285 283 286 286 288 286 285 284 284 283 282 283 282 282 282 281 281 280 280 280 278 278 278 277 277 280 281 282 283 282 282
284 278 274 269 272 281 285 286 286 287 288 287 286 286 286 286 286 288 286 285 284 282 282 281 281 281 281 280 279 279 279 278 277 276 276 274 273 274 276 279 281 281 281 281
285 285 281 282 282 285 285 286 288 288 287 287 287 286 286 286 287 285 284 283 282 281 281 281 280 279 279 278 278 277 277 275 274 273 272 271 271 272 273 275 279 281 280 280
285 286 286 287 288 287 288 288 288 287 287 287 285 284 283 283 283 282 281 280 280 280 279 278 278 277 277 277 276 276 275 273 271 269 269 269 269 270 271 273 277 280 280 280
287 286 284 287 288 287 287 287 287 286 284 282 279 279 279 279 278 278 278 278 277 276 275 275 275 275 274 274 274 273 271 269 267 267 267 267 267 268 270 272 273 277 280 280
287 288 288 288 288 288 288 285 280 280 278 277 277 276 276 276 275 274 273 273 273 272 272 271 270 270 270 269 268 267 266 266 265 265 265 265 266 266 267 269 271 273 278 281
Wind_Speed
2 3 7 15 12 4 2 4 6 9 14 7 17 18 15 18 15 22 23 21 16 14 17 24 26 23 19 21 25 31 35 41 42 42 40 35 46 49 53 54 54 52 49 47
4 7 14 2 4 7 6 5 10 6 11 4 12 24 21 20 19 22 18 17 15 12 11 12 16 14 17 22 24 27 34 37 42 41 41 29 37 36 43 47 53 52 51 49
9 5 5 6 5 7 5 6 9 9 8 5 8 9 5 4 6 9 10 15 8 15 14 14 8 14 18 21 24 27 32 36 40 42 34 32 24 25 34 43 50 56 54 52
6 3 7 4 9 7 4 9 11 6 4 3 5 12 4 6 7 6 15 3 7 12 6 6 7 11 14 16 16 22 27 30 35 38 37 39 35 27 35 41 45 50 57 57
6 5 3 4 8 6 9 1 2 3 3 4 3 3 2 3 7 11 5 6 6 10 4 10 10 18 21 21 19 17 18 25 30 35 38 35 36 34 25 28 34 40 51 57
7 2 5 7 2 5 3 3 5 4 2 4 8 7 16 4 6 3 3 4 9 11 7 6 12 24 26 25 23 19 17 20 23 30 37 39 35 30 27 30 34 37 42 51
3 5 4 3 2 1 3 5 4 4 1 11 4 4 16 4 8 9 11 8 11 9 7 5 7 9 25 34 32 25 20 17 17 23 32 37 34 31 32 33 34 31 33 40
3 13 8 6 8 8 8 9 5 6 16 20 6 11 20 8 1 4 6 8 7 5 5 8 9 13 21 27 29 30 27 22 16 17 27 32 36 35 38 37 34 37 39 42
5 12 2 4 2 4 3 5 4 5 2 3 12 17 25 8 5 5 4 5 8 9 11 12 13 20 22 23 30 33 30 25 20 18 21 27 32 33 30 29 34 36 38 38
2 10 6 2 3 3 6 2 2 1 3 15 13 17 19 21 8 8 11 15 16 18 18 18 16 27 31 32 33 36 36 31 27 23 21 23 27 31 34 31 34 38 38 41
2 3 16 2 7 8 4 5 2 3 9 16 21 17 17 11 10 15 12 10 11 14 13 13 16 24 24 27 31 32 34 34 34 33 28 26 26 28 30 33 36 38 39 41
8 4 12 9 7 8 9 13 13 13 13 12 17 21 10 10 12 13 11 11 10 11 12 13 16 23 26 29 30 31 32 31 32 32 34 29 30 30 29 31 35 38 38 40
3 4 7 8 1 3 2 3 1 3 3 10 10 7 8 16 24 19 12 9 8 9 11 11 12 16 21 24 26 27 31 31 35 36 31 30 30 30 31 28 33 36 37 40
3 3 8 11 9 8 4 3 3 4 4 11 10 16 21 24 11 14 13 13 10 10 13 11 10 10 17 19 22 24 28 30 35 35 31 26 31 30 30 31 31 35 37 38
2 11 14 12 6 5 7 12 15 16 17 13 23 27 21 3 5 9 9 11 14 15 16 15 13 11 17 20 23 22 22 27 31 32 31 28 28 30 28 27 29 33 38 36
4 3 6 5 11 11 16 20 22 21 22 20 19 13 5 3 5 8 11 9 9 11 14 15 16 14 17 19 22 25 23 23 25 24 28 33 34 33 30 28 26 27 31 37
4 3 2 11 13 10 10 16 18 16 2 1 4 2 4 4 9 6 9 10 8 10 12 13 14 15 21 22 22 21 24 26 23 24 24 30 35 37 35 32 26 22 22 28
5 2 2 4 3 4 4 5 5 2 2 3 4 5 5 8 10 6 9 5 8 12 14 11 13 17 21 23 22 22 26 25 25 26 23 29 31 34 37 39 32 29 24 22
14 8 3 3 5 7 7 2 1 3 5 6 5 5 5 8 6 11 10 5 6 9 11 15 20 23 24 26 24 24 24 22 21 21 23 26 27 30 32 31 32 31 26 23
2 11 6 2 4 6 5 4 2 4 5 8 7 8 9 4 7 13 8 6 8 12 16 18 23 23 21 26 26 23 24 23 21 23 28 26 25 27 27 30 31 28 27 28
2 3 10 2 3 8 8 6 3 5 6 4 5 9 7 6 10 17 7 7 10 15 18 20 22 22 23 24 24 22 22 22 22 24 27 27 27 28 27 28 30 28 24 26
4 3 3 2 2 8 3 2 5 6 13 14 11 12 13 15 15 15 13 10 11 11 21 25 20 23 28 25 22 23 22 23 23 26 25 30 33 30 29 29 27 25 22 21
4 6 4 9 6 5 5 10 18 17 14 17 15 14 10 13 13 10 13 14 13 19 23 24 22 28 31 27 24 24 25 21 23 25 28 31 33 32 30 29 28 25 20 17
4 5 7 7 14 18 19 18 16 14 16 13 6 6 5 9 12 13 14 16 15 22 22 25 26 26 29 29 28 26 26 23 23 25 30 32 31 34 32 27 25 24 22 17
6 5 6 13 19 14 18 16 14 9 5 6 6 6 9 10 14 12 16 17 18 25 26 26 26 27 30 31 29 27 24 26 27 32 34 32 31 29 29 28 26 27 27 24
7 14 9 14 19 15 17 2 4 5 5 7 10 12 11 10 14 15 16 20 24 26 29 29 30 31 33 32 32 30 31 32 33 34 33 30 27 27 27 27 31 29 31 32
Wind_Direction
56 122 195 219 203 157 196 232 254 263 273 309 274 269 259 264 267 262 267 280 278 274 279 276 281 282 276 262 249 246 241 235 224 215 210 214 220 221 225 227 223 223 219 213
61 220 227 102 163 220 236 271 271 276 270 181 279 291 273 249 254 259 267 277 281 293 293 280 296 291 272 270 257 245 244 237 230 217 215 213 220 222 221 222 225 223 220 217
193 217 152 192 228 233 193 224 257 250 329 270 310 274 254 272 237 281 264 248 282 274 289 299 335 309 300 282 270 256 249 240 234 224 212 214 222 219 213 220 222 222 219 217
240 261 179 157 239 165 264 234 251 277 4 269 32 297 178 221 255 273 263 357 274 283 276 296 302 303 305 300 305 280 270 254 241 225 211 209 212 209 217 214 214 214 217 215
244 170 157 173 220 150 229 105 177 170 201 349 333 296 355 139 253 262 313 281 291 271 356 355 331 333 347 359 348 315 285 258 245 232 217 213 216 222 231 213 207 210 212 214
248 329 194 215 180 194 122 81 48 62 58 277 192 191 305 152 201 268 296 344 329 322 359 325 333 347 348 349 348 337 310 281 251 232 225 220 218 218 220 210 203 205 208 210
307 230 250 173 194 90 103 66 306 312 56 260 177 237 245 179 248 313 300 292 273 316 313 317 328 341 343 349 355 355 348 320 272 253 234 225 225 221 218 210 206 202 205 207
267 290 181 185 209 186 183 177 202 257 272 276 133 253 263 195 228 314 280 274 272 318 324 311 334 347 356 0 3 2 353 342 312 268 253 243 237 226 226 222 213 211 210 213
219 262 206 208 143 173 158 183 240 276 338 297 265 268 287 237 353 24 16 25 327 332 349 354 14 22 14 12 13 13 2 348 324 295 270 257 248 240 239 230 226 225 221 216
304 300 190 214 135 254 175 285 273 24 211 252 262 269 267 300 332 350 7 12 8 25 16 6 8 9 10 9 8 10 12 5 348 319 288 269 261 252 247 242 237 232 230 226
105 219 273 283 199 213 261 255 229 287 235 256 265 259 276 312 24 43 47 33 16 10 12 14 4 3 7 10 6 4 3 0 2 355 329 298 278 267 251 244 244 243 239 233
187 217 257 230 232 214 198 228 234 245 254 241 250 248 323 9 355 354 13 26 33 28 11 8 8 360 1 3 0 359 355 354 354 347 355 330 299 275 260 255 250 242 240 239
178 215 276 297 318 34 165 160 111 288 229 253 275 275 353 330 327 341 11 36 31 20 5 0 0 359 356 354 354 353 352 350 348 346 349 346 323 294 276 266 256 250 241 238
205 214 255 265 268 313 237 285 327 287 269 293 270 295 296 302 332 348 359 358 6 9 353 346 357 349 346 346 347 346 348 349 345 340 339 349 340 319 298 285 270 260 245 238
346 264 263 268 310 325 279 280 275 267 264 268 280 279 289 31 8 355 331 325 341 343 344 343 345 341 336 339 338 343 344 343 342 334 332 345 347 337 325 297 276 262 255 244
3 316 346 298 296 288 286 282 275 277 277 268 262 262 343 321 321 321 316 310 316 323 330 331 335 335 334 337 333 331 335 334 335 331 337 345 347 349 344 326 296 269 255 246
210 227 236 273 294 312 291 258 263 267 59 292 286 56 278 259 279 298 304 304 291 310 314 317 320 326 327 325 324 324 331 328 329 338 343 343 340 340 342 339 322 282 257 246
235 120 110 258 49 255 288 47 100 160 137 142 173 211 237 268 282 266 289 272 313 320 318 305 303 301 306 307 314 324 332 334 333 338 340 339 336 331 337 337 331 315 290 256
218 217 251 207 205 308 295 135 97 102 258 211 204 242 253 253 266 275 251 238 275 285 298 291 292 290 299 306 311 317 322 323 325 329 329 331 325 326 329 325 324 321 301 276
80 210 195 131 206 220 246 244 171 109 275 218 203 232 249 269 279 277 218 242 265 274 291 291 297 295 291 296 305 308 311 312 312 319 320 322 326 320 317 316 313 313 308 284
24 13 216 237 260 285 248 226 173 78 268 230 218 243 235 242 258 270 260 254 255 278 289 294 292 286 286 290 295 291 295 295 303 312 312 315 320 316 315 304 307 310 302 284
180 153 211 83 55 286 214 262 175 261 297 292 283 270 281 275 280 264 266 282 287 291 294 295 288 288 292 290 287 283 280 291 299 308 308 312 312 311 307 304 300 297 286 266
275 189 202 188 217 233 218 244 280 286 279 282 282 288 276 270 275 287 295 295 293 286 286 289 288 289 290 289 287 280 284 298 302 302 307 307 306 304 303 302 299 288 275 253
266 209 237 279 256 256 265 273 274 274 275 290 316 322 333 297 297 302 296 293 293 292 293 296 293 287 287 292 290 280 291 298 299 303 303 301 300 300 298 294 292 281 272 260
217 161 216 256 274 277 267 265 275 300 7 7 357 331 315 304 295 299 296 299 299 299 300 299 295 292 292 297 295 296 301 306 304 299 295 292 289 287 289 287 282 280 269 258
213 244 248 259 270 273 277 42 35 6 360 342 327 319 316 319 306 309 298 301 303 304 309 306 301 299 298 301 300 300 301 299 294 291 290 288 287 285 284 285 291 282 275 266